DMSP 5D-2 F13 DEB, 40434

Orbit data source: Space-Track

DMSP 5D-2 F13 DEB, 40434 is space debris in SSO originally from a launch on Fri, 24 Mar 1995 UTC launched from the Air Force Western Test Range (AFWTR). Debris objects in space refer to the collection of defunct objects orbiting the Earth. Examples of debris include non-operational satellites, rocket bodies, and fragments generated from explosions, collisions, or faulty payload assembly.

Loading next visibility...
Identifier
40434, 1995-015AL
Orbit
SSO
Country
Flag of USUS
Related business
Manufacturer
Unknown
Mission
Spacecraft
Bus & Motor
Unknown
Mass
Unknown
Launch date (UTC)
1995-03-24 (31 years ago)
Launch vehicle
Unknown
Launch site
Air Force Western Test Range (AFWTR)
Object type
Payload
Rocket body
Debris
Shape & HBR
Unknown shape, 0.1 m
Radar Cross Section
Small (<0.1 m²)

Expand to show TLE details & history
Last TLE update: 12 hours ago

TLE from 12 hours ago
0 DMSP 5D-2 F13 DEB
1 40434U 95015AL  26073.39539371  .00001504  00000-0  70874-3 0  9992
2 40434  99.1149  60.4176 0172341 124.2702 237.4925 14.13886004565968
Epoch: 2026-03-14T09:29Z
TLE epoch observation values (Epoch: 2026-03-14T09:29:22.016Z)
Latitude
-0.00006°
Longitude
106.05869°
Altitude
917.427 km
Speed
7.358 km/s
True Right ascension
04h 01m 40s
True Declination
0° 00' 00"
Sunlit
Object was in daylight at epoch
Visualization orbit readout
Latitude
Unknown
Longitude
Unknown
Altitude
Unknown
Speed
Unknown
Apparent Right ascension
Unknown
Apparent Declination
Unknown
Sunlit
N/A
Visualization observer readout
Local Sidereal Time
01:33:42
Azimuth
Unknown
Elevation
Unknown
Doppler factor
Unknown
Orbital elements
Apogee altitude
967.744 km
Perigee altitude
718.835 km
Semi-major axis
7,221.427 km
Eccentricity
0.01723
Inclination
99.1149°
RAAN
60.4176°
Arg. of periapsis
124.2702°
True anomaly
235.84634°
Mean anomaly
237.4925°
Eccentric anomaly
236.6675°
Mean motion
3.53679 °/min
Orbital period
101.79 mins
BSTAR
0.00070874

Documentation

Showing up to 5 results
|